Bellefontaine, OH

7:18 PM EST on November 18, 2017 (GMT -0500)
Bellefontaine

Weather History for KEDJ - October, 2011

Change the Weather History Date:

Friday, October 21, 2011

  Actual Average (KDLZ) Record (KDLZ)
Temperature  
Mean Temperature 45 °F -  
Max Temperature 51 °F 59 °F 85 °F (1953)
Min Temperature 37 °F 37 °F 18 °F (1952)
Degree Days  
Heating Degree Days 20    
Moisture  
Dew Point 39 °F    
Average Humidity 82    
Maximum Humidity 100    
Minimum Humidity 58    
Precipitation  
Precipitation 0.00 in - - ()
Sea Level Pressure  
Sea Level Pressure 29.98 in    
Wind  
Wind Speed 11 mph (WSW)    
Max Wind Speed 20 mph    
Max Gust Speed 26 mph    
Visibility 10 miles    
Events      
Averages and records for this station are not official NWS values.
T = Trace of Precipitation, MM = Missing Value Source: NWS Daily Summary

Daily Weather History Graph

Daily Weather History Graph

Search for Another Location

Airport or City:

Trip Planner

Search our weather history database for the weather conditions in past years. The results will help you decide how hot, cold, wet, or windy it might be!

Date:

Astronomy

Oct. 21, 2011 Rise Set
Actual Time 7:52 AM EDT 6:46 PM EDT
Civil Twilight 7:24 AM EDT 7:14 PM EDT
Nautical Twilight 6:52 AM EDT 7:46 PM EDT
Astronomical Twilight 6:21 AM EDT 8:17 PM EDT
Moon 1:40 AM EDT (10/21) 3:31 PM EDT (10/21)
Length of Visible Light 11h 49m
Length of Day
10h 54m
Waning Crescent, 34% of the Moon is Illuminated
Oct 21
Waning Crescent
Oct 26
New
Nov 2
First Quarter
Nov 10
Full
Nov 18
Last Quarter

Hourly Weather History & Observations

Time (EDT) Temp. Windchill Dew Point Humidity Pressure Visibility Wind Dir Wind Speed Gust Speed Precip Events Conditions
12:10 AM 41.0 °F 33.1 °F 39.2 °F 93% 29.80 in 10.0 mi West 15.0 mph 25.3 mph 0.00 in   Overcast
12:30 AM 41.0 °F 31.9 °F 39.2 °F 93% 29.80 in 10.0 mi West 19.6 mph 26.5 mph 0.00 in   Overcast
12:50 AM 41.0 °F 33.1 °F 39.2 °F 93% 29.82 in 10.0 mi West 15.0 mph 21.9 mph 0.00 in   Overcast
1:10 AM 41.0 °F 33.5 °F 39.2 °F 93% 29.82 in 7.0 mi West 13.8 mph 19.6 mph 0.00 in   Overcast
1:30 AM 41.0 °F 33.1 °F 39.2 °F 93% 29.83 in 9.0 mi WSW 15.0 mph - 0.00 in   Overcast
2:30 AM 41.0 °F 34.3 °F 41.0 °F 100% 29.85 in 10.0 mi WSW 11.5 mph 20.7 mph 0.00 in   Overcast
2:50 AM 41.0 °F 33.5 °F 41.0 °F 100% 29.85 in 10.0 mi WSW 13.8 mph 19.6 mph 0.00 in   Overcast
3:10 AM 41.0 °F 32.5 °F 41.0 °F 100% 29.85 in 10.0 mi WSW 17.3 mph - 0.00 in   Overcast
3:30 AM 41.0 °F 34.3 °F 41.0 °F 100% 29.86 in 10.0 mi WSW 11.5 mph - 0.00 in   Overcast
3:50 AM 41.0 °F 34.7 °F 39.2 °F 93% 29.86 in 10.0 mi WSW 10.4 mph - 0.00 in   Overcast
4:10 AM 42.8 °F 36.6 °F 39.2 °F 87% 29.87 in 10.0 mi WSW 11.5 mph - 0.00 in   Overcast
4:30 AM 42.8 °F 36.6 °F 39.2 °F 87% 29.88 in 10.0 mi WSW 11.5 mph - 0.00 in   Overcast
5:10 AM 42.8 °F 36.6 °F 39.2 °F 87% 29.89 in 10.0 mi WSW 11.5 mph - 0.00 in   Overcast
5:30 AM 41.0 °F 35.2 °F 39.2 °F 93% 29.90 in 10.0 mi WSW 9.2 mph - 0.00 in   Overcast
5:50 AM 41.0 °F 34.3 °F 39.2 °F 93% 29.91 in 10.0 mi WSW 11.5 mph - 0.00 in   Overcast
6:30 AM 42.8 °F 36.2 °F 39.2 °F 87% 29.92 in 10.0 mi WSW 12.7 mph - 0.00 in   Overcast
6:50 AM 41.0 °F 35.2 °F 39.2 °F 93% 29.93 in 10.0 mi WSW 9.2 mph - 0.00 in   Overcast
7:10 AM 41.0 °F 35.2 °F 39.2 °F 93% 29.93 in 10.0 mi WSW 9.2 mph 16.1 mph 0.00 in   Overcast
7:30 AM 41.0 °F 34.7 °F 39.2 °F 93% 29.94 in 10.0 mi WSW 10.4 mph - 0.00 in   Overcast
8:10 AM 41.0 °F 34.7 °F 39.2 °F 93% 29.96 in 10.0 mi WSW 10.4 mph - 0.00 in   Overcast
8:30 AM 41.0 °F 34.7 °F 39.2 °F 93% 29.97 in 10.0 mi WSW 10.4 mph - 0.00 in   Overcast
8:50 AM 42.8 °F 37.5 °F 39.2 °F 87% 29.98 in 10.0 mi WSW 9.2 mph - 0.00 in   Overcast
9:10 AM 42.8 °F 37.0 °F 39.2 °F 87% 29.99 in 10.0 mi West 10.4 mph - 0.00 in   Overcast
9:30 AM 42.8 °F 37.0 °F 39.2 °F 87% 30.00 in 10.0 mi WSW 10.4 mph - 0.00 in   Overcast
9:50 AM 42.8 °F 37.5 °F 39.2 °F 87% 30.00 in 10.0 mi WSW 9.2 mph - 0.00 in   Overcast
10:10 AM 42.8 °F 38.0 °F 39.2 °F 87% 30.01 in 10.0 mi WSW 8.1 mph - 0.00 in   Overcast
10:30 AM 42.8 °F 37.5 °F 39.2 °F 87% 30.01 in 9.0 mi WSW 9.2 mph - 0.00 in   Overcast
10:50 AM 42.8 °F 38.0 °F 39.2 °F 87% 30.02 in 10.0 mi SW 8.1 mph - 0.00 in   Overcast
11:10 AM 42.8 °F 38.6 °F 39.2 °F 87% 30.02 in 10.0 mi SW 6.9 mph - 0.00 in   Overcast
11:30 AM 44.6 °F 39.7 °F 39.2 °F 81% 30.02 in 10.0 mi SW 9.2 mph - 0.00 in   Overcast
11:50 AM 46.4 °F 42.4 °F 41.0 °F 81% 30.03 in 10.0 mi WSW 8.1 mph - 0.00 in   Overcast
12:10 PM 46.4 °F 42.4 °F 41.0 °F 81% 30.03 in 10.0 mi West 8.1 mph - 0.00 in   Overcast
12:30 PM 48.2 °F - 41.0 °F 76% 30.02 in 10.0 mi WSW 9.2 mph - 0.00 in   Mostly Cloudy
12:50 PM 48.2 °F - 37.4 °F 66% 30.02 in 10.0 mi West 9.2 mph - 0.00 in   Mostly Cloudy
1:10 PM 48.2 °F - 39.2 °F 71% 30.02 in 10.0 mi West 8.1 mph - 0.00 in   Overcast
1:30 PM 48.2 °F - 39.2 °F 71% 30.02 in 10.0 mi West 5.8 mph - 0.00 in   Overcast
1:50 PM 48.2 °F - 39.2 °F 71% 30.02 in 10.0 mi West 6.9 mph - 0.00 in   Overcast
2:10 PM 48.2 °F - 37.4 °F 66% 30.02 in 10.0 mi West 9.2 mph - 0.00 in   Overcast
2:30 PM 50.0 °F - 37.4 °F 62% 30.01 in 10.0 mi WSW 10.4 mph - 0.00 in   Mostly Cloudy
2:50 PM 51.8 °F - 37.4 °F 58% 30.01 in 10.0 mi WSW 9.2 mph - 0.00 in   Partly Cloudy
3:10 PM 51.8 °F - 37.4 °F 58% 30.01 in 10.0 mi West 10.4 mph - 0.00 in   Mostly Cloudy
3:30 PM 51.8 °F - 37.4 °F 58% 30.01 in 10.0 mi West 9.2 mph - 0.00 in   Mostly Cloudy
3:50 PM 51.8 °F - 37.4 °F 58% 30.02 in 10.0 mi West 6.9 mph - 0.00 in   Overcast
4:10 PM 50.0 °F - 37.4 °F 62% 30.02 in 10.0 mi WNW 8.1 mph - 0.00 in   Overcast
4:30 PM 50.0 °F - 37.4 °F 62% 30.02 in 10.0 mi West 6.9 mph - 0.00 in   Overcast
4:50 PM 50.0 °F - 37.4 °F 62% 30.02 in 10.0 mi WNW 9.2 mph - 0.00 in   Overcast
5:10 PM 50.0 °F - 37.4 °F 62% 30.03 in 10.0 mi WNW 9.2 mph - 0.00 in   Overcast
5:30 PM 48.2 °F - 37.4 °F 66% 30.03 in 10.0 mi NW 5.8 mph - 0.00 in   Mostly Cloudy
5:50 PM 48.2 °F - 37.4 °F 66% 30.04 in 10.0 mi WNW 5.8 mph - 0.00 in   Mostly Cloudy
6:50 PM 46.4 °F 43.5 °F 37.4 °F 71% 30.06 in 10.0 mi NW 5.8 mph - 0.00 in   Overcast
7:10 PM 46.4 °F 44.3 °F 37.4 °F 71% 30.06 in 10.0 mi NW 4.6 mph - 0.00 in   Overcast
7:30 PM 44.6 °F 43.1 °F 37.4 °F 76% 30.06 in 10.0 mi NNW 3.5 mph - 0.00 in   Scattered Clouds
7:50 PM 44.6 °F - 37.4 °F 76% 30.07 in 10.0 mi Calm Calm - 0.00 in   Clear
8:10 PM 44.6 °F - 37.4 °F 76% 30.07 in 10.0 mi Calm Calm - 0.00 in   Mostly Cloudy
8:30 PM 42.8 °F - 39.2 °F 87% 30.07 in 10.0 mi Calm Calm - 0.00 in   Mostly Cloudy
8:50 PM 42.8 °F - 37.4 °F 81% 30.07 in 10.0 mi Calm Calm - 0.00 in   Partly Cloudy
9:10 PM 39.2 °F - 39.2 °F 100% 30.08 in 10.0 mi Calm Calm - 0.00 in   Clear
9:30 PM 39.2 °F - 37.4 °F 93% 30.08 in 10.0 mi Calm Calm - 0.00 in   Clear
9:50 PM 39.2 °F - 37.4 °F 93% 30.08 in 10.0 mi Calm Calm - 0.00 in   Clear
10:10 PM 39.2 °F 37.0 °F 39.2 °F 100% 30.08 in 10.0 mi SSE 3.5 mph - 0.00 in   Clear
10:50 PM 37.4 °F 34.9 °F 37.4 °F 100% 30.08 in 8.0 mi SSE 3.5 mph - 0.00 in   Clear
11:10 PM 37.4 °F 33.8 °F 37.4 °F 100% 30.08 in 10.0 mi SSE 4.6 mph - 0.00 in   Clear
11:30 PM 37.4 °F 32.8 °F 37.4 °F 100% 30.08 in 10.0 mi SE 5.8 mph - 0.00 in   Clear
11:50 PM 37.4 °F 32.8 °F 37.4 °F 100% 30.08 in 10.0 mi SE 5.8 mph - 0.00 in   Clear